Weather in Ust-Erga

Russia / Arkhangel'skaya Oblast'     62°05′55″N   45°08′53″E
temp.,
°C
wind,
m/s
gust,
m/s
humid.,
%
clouds,
%
prec.,
mm/h
press.,
hPa
HPBL,
m
8 december, wed
wed800:00−10ese61694100 0.6 1025641
03:00−9se51394100 1.4 1023813
06:00−8se51194100 1.2 1021758
09:00−8se41094100 1.9 1020632
12:00−8se3894100 0.3 1020524
15:00−9ese3895100 0.6 1019298
18:00−9se2696100 0.3 1019194
21:00−10se1497100 0.7 101989
9 december, thu
thu900:00−13sse119898 0.2 102016
03:00−15wsw119887 0.3 102121
06:00−16wsw139896 0.1 102250
09:00−17wsw239999 0.2 102354
12:00−17wsw139997 0.1 102484
15:00−20wsw1110096 0.1 10259
18:00−21w1110096 0.1 102523
21:00−23w1110094 0.1 10269
10 december, fri
fri1000:00−22w1310077 0.0 102839
03:00−19wsw2510090 0.1 102891
06:00−18w2799100 0.1 1030139
09:00−16w279897 0.1 1031146
12:00−14wnw389793 0.0 1034214
15:00−18w1110075 0.1 103510
18:00−20wsw1110032 0.0 10379
21:00−21w1110031 0.0 10389
11 december, sat
sat1100:00−22w111007 0.0 10389
03:00−22w111008 0.0 10399
06:00−22wsw111007 0.0 10409
09:00−22ssw001007 0.0 10409
12:00−18ssw11986 0.0 104017
15:00−20se111006 0.0 10419
18:00−20sse1110032 0.0 10419
21:00−20se111006 0.0 104010
12 december, sun
sun1200:00−20sse22996 0.0 104018
03:00−19se22985 0.0 103923
06:00−18se22955 0.0 103839
09:00−17se23955 0.0 103741
12:00−13se25925 0.0 103590
15:00−11sse2791100 0.0 1034163
18:00−7ssw3995100 0.4 1033413
21:00−8ssw2695100 0.5 1032143